Back to catalog

STARLINK-30795

AliveCommunicationsVLEO
NORAD 58118·PAYLOAD·🇺🇸 United States

Launched Oct 22, 2023 from Cape Canaveral Space Force Station

Loading…

Next Passes (next 24 hours)

TLE

FreshSource: CelesTrak SupGP

Epoch: Sep 15, 2026, 03:20 UTC

1 58118C 23162A   26258.13937500  .00066846  00000+0  24208-2 0  2583
2 58118  43.0014 142.1939 0001415 273.5689 157.3993 15.27550109    10

Track STARLINK-30795 in real time with AllMySat

Download on the App Store